WXM80 ListenWXM80 Stop

You find our weather info also at:

UK Metoffice

WeatherCloud

Weather Underground

Northeastern Weather Network

AWEKAS

Citizen Weather Observer Program (CWOP)

HAMweather, WeatherForYou, PWS Weather


Weather Underground History page Text

Daily Summary for August 21, 2018 Units:  English    Metric   Both
« Previous Day
Next Day »
Daily Weekly Monthly Yearly Custom
  Current: High: Low: Average:
Temperature: 79 °F TemperatureF °F 62.6 °F 69.7 °F
Dew Point: 70 °F DewpointF °F 60.5 °F 64.7 °F
Humidity: 74 % Humidity % 70 % 84 %
Wind Speed: 0 mph WindSpeedMPH mph 0 mph 0.4 mph
Wind Gust: 0 mph WindSpeedGustMPH mph - -
Wind:Calm - - ENE
Pressure: 29.99 in PressureIn in 29.98 in -
Precipitation: 0 in      
Historical Graphs
 
 
Tabular Data for August 21, 2018
Time Temperature Dew Point Pressure Wind Wind Speed Wind Gust Humidity Rainfall Rate (Hourly)
TemperatureF °F DewpointF °F PressureIn in Calm     Humidity % HourlyPrecipIn in
00:04 66.3 °F 63.9 °F 30.12 in Calm     92 % 0 in
00:09 66.3 °F 63.9 °F 30.12 in SE 0.3 mph 3.5 mph 92 % 0 in
00:14 66.4 °F 64 °F 30.13 in Calm   1.2 mph 92 % 0 in
00:19 66.4 °F 64 °F 30.13 in Calm     92 % 0 in
00:24 66.5 °F 64.1 °F 30.13 in Calm     92 % 0 in
00:29 66.5 °F 63.8 °F 30.13 in Calm     91 % 0 in
00:34 66.6 °F 63.9 °F 30.13 in Calm     91 % 0 in
00:39 66.7 °F 64 °F 30.12 in Calm     91 % 0 in
00:44 66.7 °F 64 °F 30.13 in Calm     91 % 0 in
00:49 66.8 °F 63.8 °F 30.13 in Calm     90 % 0 in
00:54 66.8 °F 63.8 °F 30.13 in Calm     90 % 0 in
00:59 66.8 °F 63.8 °F 30.13 in Calm     90 % 0 in
01:04 66.9 °F 63.9 °F 30.12 in Calm     90 % 0 in
01:09 66.9 °F 63.9 °F 30.12 in Calm     90 % 0 in
01:14 66.9 °F 63.9 °F 30.12 in Calm     90 % 0 in
01:19 66.9 °F 63.9 °F 30.12 in Calm     90 % 0 in
01:24 66.9 °F 63.9 °F 30.12 in Calm     90 % 0 in
01:29 66.9 °F 63.9 °F 30.12 in Calm     90 % 0 in
01:34 66.8 °F 63.8 °F 30.12 in Calm     90 % 0 in
01:39 66.8 °F 63.8 °F 30.12 in Calm     90 % 0 in
01:44 66.8 °F 63.8 °F 30.12 in Calm     90 % 0 in
01:49 66.8 °F 63.8 °F 30.12 in Calm     90 % 0 in
01:54 66.7 °F 63.7 °F 30.12 in SE 0.2 mph 3.5 mph 90 % 0 in
01:59 66.7 °F 63.4 °F 30.11 in Calm     89 % 0 in
02:04 66.7 °F 63.4 °F 30.11 in Calm     89 % 0 in
02:09 66.6 °F 63.3 °F 30.11 in Calm     89 % 0 in
02:14 66.6 °F 63.3 °F 30.11 in Calm     89 % 0 in
02:19 66.5 °F 63.2 °F 30.11 in Calm     89 % 0 in
02:24 66.4 °F 63.1 °F 30.11 in Calm     89 % 0 in
02:29 66.3 °F 63 °F 30.11 in Calm     89 % 0 in
02:34 66.2 °F 62.9 °F 30.11 in Calm     89 % 0 in
02:39 66.1 °F 62.8 °F 30.11 in Calm     89 % 0 in
02:44 66 °F 63 °F 30.11 in Calm     90 % 0 in
02:49 65.9 °F 62.6 °F 30.11 in Calm     89 % 0 in
02:54 65.8 °F 62.5 °F 30.11 in Calm     89 % 0 in
02:59 65.7 °F 62.4 °F 30.11 in Calm     89 % 0 in
03:04 65.6 °F 62.6 °F 30.11 in Calm     90 % 0 in
03:09 65.5 °F 62.5 °F 30.10 in Calm     90 % 0 in
03:14 65.4 °F 62.4 °F 30.10 in Calm     90 % 0 in
03:19 65.2 °F 62.2 °F 30.10 in Calm     90 % 0 in
03:24 65.2 °F 62.2 °F 30.09 in Calm     90 % 0 in
03:29 65 °F 62 °F 30.09 in Calm     90 % 0 in
03:34 64.9 °F 61.9 °F 30.09 in Calm     90 % 0 in
03:39 64.8 °F 61.8 °F 30.09 in Calm     90 % 0 in
03:44 64.7 °F 61.7 °F 30.09 in Calm     90 % 0 in
03:49 64.5 °F 61.5 °F 30.09 in Calm     90 % 0 in
03:54 64.4 °F 61.4 °F 30.09 in Calm     90 % 0 in
03:59 64.3 °F 61.6 °F 30.09 in Calm     91 % 0 in
04:04 64.2 °F 61.5 °F 30.09 in Calm     91 % 0 in
04:09 64.1 °F 61.4 °F 30.09 in Calm     91 % 0 in
04:14 64 °F 61.3 °F 30.08 in Calm     91 % 0 in
04:19 63.9 °F 61.2 °F 30.08 in Calm     91 % 0 in
04:24 63.8 °F 61.1 °F 30.08 in Calm     91 % 0 in
04:29 63.8 °F 61.1 °F 30.08 in Calm     91 % 0 in
04:34 63.7 °F 61 °F 30.09 in Calm     91 % 0 in
04:39 63.6 °F 60.9 °F 30.09 in Calm     91 % 0 in
04:44 63.5 °F 60.8 °F 30.09 in Calm     91 % 0 in
04:49 63.5 °F 60.8 °F 30.09 in Calm     91 % 0 in
04:54 63.4 °F 60.7 °F 30.09 in Calm     91 % 0 in
04:59 63.4 °F 61 °F 30.09 in Calm     92 % 0 in
05:04 63.3 °F 60.9 °F 30.09 in Calm     92 % 0 in
05:09 63.3 °F 60.9 °F 30.09 in Calm     92 % 0 in
05:14 63.2 °F 60.8 °F 30.09 in Calm     92 % 0 in
05:19 63.1 °F 60.7 °F 30.09 in Calm     92 % 0 in
05:24 63.1 °F 60.7 °F 30.09 in Calm     92 % 0 in
05:29 63 °F 60.6 °F 30.09 in Calm     92 % 0 in
05:34 63 °F 60.6 °F 30.09 in Calm     92 % 0 in
05:39 63 °F 60.6 °F 30.09 in Calm     92 % 0 in
05:44 62.9 °F 60.8 °F 30.09 in Calm     93 % 0 in
05:49 62.9 °F 60.8 °F 30.09 in Calm     93 % 0 in
05:54 62.9 °F 60.8 °F 30.09 in Calm     93 % 0 in
05:59 62.8 °F 60.7 °F 30.09 in Calm     93 % 0 in
06:04 62.8 °F 60.7 °F 30.09 in Calm     93 % 0 in
06:09 62.7 °F 60.6 °F 30.09 in Calm     93 % 0 in
06:14 62.7 °F 60.6 °F 30.09 in Calm     93 % 0 in
06:19 62.7 °F 60.6 °F 30.09 in Calm     93 % 0 in
06:24 62.7 °F 60.6 °F 30.09 in Calm     93 % 0 in
06:29 62.6 °F 60.5 °F 30.09 in Calm     93 % 0 in
06:34 62.6 °F 60.5 °F 30.09 in Calm     93 % 0 in
06:39 62.6 °F 60.5 °F 30.09 in Calm     93 % 0 in
06:44 62.7 °F 60.9 °F 30.09 in Calm     94 % 0 in
06:49 62.7 °F 60.9 °F 30.10 in Calm     94 % 0 in
06:54 62.8 °F 61 °F 30.10 in Calm     94 % 0 in
06:59 63 °F 61.2 °F 30.10 in Calm     94 % 0 in
07:04 63.1 °F 61.6 °F 30.10 in Calm     95 % 0 in
07:09 63.3 °F 61.8 °F 30.10 in Calm     95 % 0 in
07:14 63.8 °F 62.6 °F 30.09 in Calm     96 % 0 in
07:19 64.3 °F 63.1 °F 30.09 in Calm     96 % 0 in
07:24 64.7 °F 63.5 °F 30.09 in East 0.5 mph 1 mph 96 % 0 in
07:29 65 °F 63.8 °F 30.09 in Calm     96 % 0 in
07:34 65.4 °F 64.2 °F 30.09 in Calm     96 % 0 in
07:39 65.6 °F 64.4 °F 30.09 in Calm     96 % 0 in
07:44 65.9 °F 64.4 °F 30.09 in Calm     95 % 0 in
07:49 66.2 °F 64.7 °F 30.09 in East 0.1 mph 1 mph 95 % 0 in
07:54 66.5 °F 64.7 °F 30.09 in Calm     94 % 0 in
07:59 66.8 °F 65 °F 30.09 in Calm     94 % 0 in
08:04 67 °F 64.9 °F 30.09 in Calm     93 % 0 in
08:09 67.3 °F 64.9 °F 30.09 in East 0.3 mph 2 mph 92 % 0 in
08:14 67.5 °F 65.1 °F 30.10 in Calm     92 % 0 in
08:19 67.7 °F 65 °F 30.09 in Calm     91 % 0 in
08:24 68 °F 65.3 °F 30.09 in Calm     91 % 0 in
08:29 68.2 °F 65.2 °F 30.09 in Calm     90 % 0 in
08:34 68.5 °F 65.4 °F 30.09 in Calm   1.2 mph 90 % 0 in
08:39 68.6 °F 65.2 °F 30.09 in Calm     89 % 0 in
08:44 68.8 °F 65.4 °F 30.09 in Calm     89 % 0 in
08:49 69 °F 65 °F 30.09 in Calm     87 % 0 in
08:54 69.1 °F 65.1 °F 30.09 in Calm   1.2 mph 87 % 0 in
08:59 69.3 °F 64.9 °F 30.09 in Calm     86 % 0 in
09:04 69.4 °F 65 °F 30.09 in Calm     86 % 0 in
09:09 69.5 °F 65.1 °F 30.09 in Calm     86 % 0 in
09:14 69.6 °F 65.2 °F 30.09 in Calm     86 % 0 in
09:19 69.6 °F 64.9 °F 30.09 in Calm     85 % 0 in
09:24 69.7 °F 65 °F 30.09 in Calm     85 % 0 in
09:29 69.8 °F 65.1 °F 30.09 in Calm     85 % 0 in
09:34 69.9 °F 65.2 °F 30.09 in Calm     85 % 0 in
09:39 70 °F 65.3 °F 30.09 in Calm     85 % 0 in
09:44 70.2 °F 65.5 °F 30.10 in Calm     85 % 0 in
09:49 70.4 °F 65 °F 30.10 in Calm     83 % 0 in
09:54 70.9 °F 65.8 °F 30.10 in Calm     84 % 0 in
09:59 71.3 °F 65.5 °F 30.09 in Calm     82 % 0 in
10:04 71.9 °F 65.8 °F 30.09 in Calm   3.5 mph 81 % 0 in
10:09 72.4 °F 66.2 °F 30.09 in Calm     81 % 0 in
10:14 72.7 °F 66.2 °F 30.09 in Calm     80 % 0 in
10:19 72.8 °F 65.9 °F 30.09 in NE 0.7 mph 1.2 mph 79 % 0 in
10:24 72.7 °F 65.8 °F 30.09 in ENE 0.2 mph 1.2 mph 79 % 0 in
10:29 72.7 °F 65.4 °F 30.09 in NE 0.4 mph 3.5 mph 78 % 0 in
10:34 72.9 °F 66 °F 30.09 in Calm     79 % 0 in
10:39 73.1 °F 66.6 °F 30.09 in Calm     80 % 0 in
10:44 73.5 °F 66.6 °F 30.09 in ENE 0.4 mph   79 % 0 in
10:49 73.8 °F 65.8 °F 30.09 in Calm   4.6 mph 76 % 0 in
10:54 74.3 °F 67 °F 30.08 in Calm     78 % 0 in
10:59 74.8 °F 66.7 °F 30.08 in Calm     76 % 0 in
11:04 75.2 °F 66.7 °F 30.07 in ENE 0.6 mph 3.5 mph 75 % 0 in
11:09 75.7 °F 67.6 °F 30.07 in NE 0.3 mph 2 mph 76 % 0 in
11:14 76.1 °F 67.6 °F 30.07 in NE 0.2 mph 2 mph 75 % 0 in
11:19 76.5 °F 67.6 °F 30.07 in Calm     74 % 0 in
11:24 76.9 °F 68 °F 30.07 in ENE 2.6 mph 2.3 mph 74 % 0 in
11:29 77.2 °F 68.7 °F 30.07 in Calm     75 % 0 in
11:34 77.5 °F 67.8 °F 30.07 in ENE 1.8 mph 3 mph 72 % 0 in
11:39 77.6 °F 68.3 °F 30.07 in ENE 0.2 mph 3.5 mph 73 % 0 in
11:44 77.8 °F 68 °F 30.07 in ENE 0.3 mph 4.6 mph 72 % 0 in
11:49 78 °F 68.2 °F 30.07 in ENE 0.4 mph 3.5 mph 72 % 0 in
11:54 78.1 °F 67.9 °F 30.06 in ENE 0.5 mph 3.5 mph 71 % 0 in
11:59 78.4 °F 69 °F 30.06 in NE 0.2 mph 3.5 mph 73 % 0 in
12:04 78.6 °F 69.2 °F 30.05 in ENE 0.6 mph 5 mph 73 % 0 in
12:09 78.7 °F 68.5 °F 30.06 in ENE 0.8 mph 3 mph 71 % 0 in
12:14 78.8 °F 68.6 °F 30.05 in ENE 1.1 mph 4.6 mph 71 % 0 in
12:19 78.9 °F 68.3 °F 30.05 in ENE 1.5 mph 8.1 mph 70 % 0 in
12:24 79.1 °F 69.7 °F 30.05 in NE 0.3 mph 3.5 mph 73 % 0 in
12:29 79.1 °F 68.5 °F 30.05 in ENE 2.1 mph 5 mph 70 % 0 in
12:34 79.1 °F 69.7 °F 30.05 in ENE 2.1 mph 4 mph 73 % 0 in
12:39 79.2 °F 70.2 °F 30.05 in Calm     74 % 0 in
12:44 79.3 °F 68.7 °F 30.05 in NE 0.7 mph 5.8 mph 70 % 0 in
12:49 79.4 °F 70 °F 30.04 in ENE 0.6 mph 5.8 mph 73 % 0 in
12:54 79.4 °F 69.2 °F 30.04 in ENE 2.2 mph 4.6 mph 71 % 0 in
12:59 79.5 °F 69.7 °F 30.04 in ENE 0.6 mph 5.8 mph 72 % 0 in
13:04 79.6 °F 69.4 °F 30.04 in East 2.4 mph 6.9 mph 71 % 0 in
13:09 79.5 °F 69.3 °F 30.04 in ENE 1.8 mph 8.1 mph 71 % 0 in
13:14 79.6 °F 69.8 °F 30.04 in ENE 1.8 mph 2 mph 72 % 0 in
13:19 79.3 °F 68.7 °F 30.04 in NNE 0.6 mph 11.5 mph 70 % 0 in
13:24 79.1 °F 69.3 °F 30.04 in ENE 0.8 mph 5.8 mph 72 % 0 in
13:29 79.2 °F 69 °F 30.03 in ENE 3 mph 9.2 mph 71 % 0 in
13:34 79.1 °F 70.1 °F 30.03 in ENE 2 mph 4.6 mph 74 % 0 in
13:39 78.9 °F 69.5 °F 30.03 in ENE 1.1 mph 3.5 mph 73 % 0 in
13:44 78.8 °F 69.4 °F 30.03 in NE 1.2 mph 5 mph 73 % 0 in
13:49 78.7 °F 69.3 °F 30.02 in East 1.3 mph 4.6 mph 73 % 0 in
13:54 78.6 °F 69.2 °F 30.02 in ENE 2.7 mph 5 mph 73 % 0 in
13:59 78.7 °F 70.1 °F 30.02 in ENE 0.6 mph 2.3 mph 75 % 0 in
14:04 79 °F 70 °F 30.02 in ENE 0.1 mph 4 mph 74 % 0 in
14:09 79.2 °F 69.4 °F 30.01 in NE 0.5 mph 2.3 mph 72 % 0 in
14:14 79.2 °F 70.2 °F 30.01 in ENE 0.2 mph 1.2 mph 74 % 0 in
14:19 79.3 °F 70.3 °F 30.01 in ENE 0.4 mph 2 mph 74 % 0 in
14:24 79.3 °F 69.9 °F 30.01 in Calm     73 % 0 in
14:29 79.4 °F 70 °F 30.01 in ENE 0.7 mph 2.3 mph 73 % 0 in
14:34 79.2 °F 69.4 °F 30.01 in NNE 0.4 mph 5.8 mph 72 % 0 in
14:39 79 °F 69.2 °F 30.00 in ENE 2.8 mph 9.2 mph 72 % 0 in
14:44 78.9 °F 70.3 °F 30.00 in ENE 0.5 mph 2.3 mph 75 % 0 in
14:49 78.9 °F 69.5 °F 30.00 in ENE 1.7 mph 3.5 mph 73 % 0 in
14:54 78.8 °F 69.8 °F 30.00 in ENE 2.5 mph 6 mph 74 % 0 in
14:59 78.7 °F 69.7 °F 30.00 in ENE 1.4 mph 3.5 mph 74 % 0 in
15:04 78.7 °F 70.1 °F 30.00 in ENE 0.2 mph 3.5 mph 75 % 0 in
15:09 78.9 °F 70.3 °F 30.00 in ENE 2.1 mph 6.9 mph 75 % 0 in
15:14 78.9 °F 70.3 °F 30.00 in East 1.1 mph 3.5 mph 75 % 0 in
15:19 78.8 °F 70.2 °F 29.99 in ENE 1.7 mph 4.6 mph 75 % 0 in
15:24 78.6 °F 70 °F 30.00 in ENE 0.5 mph 4.6 mph 75 % 0 in
15:29 78.7 °F 70.1 °F 29.99 in ENE 1.5 mph 3.5 mph 75 % 0 in
15:34 78.7 °F 70.1 °F 29.99 in East 2.9 mph 3.5 mph 75 % 0 in
15:39 78.8 °F 70.6 °F 29.98 in North 3.2 mph 3.5 mph 76 % 0 in
15:44 79 °F 70 °F 29.99 in Calm     74 % 0 in
Crab Meadow Weather
Compliments of Weather Underground - 2.25 mb

Script developed by  Jim McMurry - jmcmurry@mwt.net Adapted for the template by  Wim van der Kuil - Leuven-Template.eu

Extremes: A record low of - 128.6 degrees F was recorded at Vostok, Antarctica.